Regional Weather Roundup
Issued by NWS Goodland, KS

Home | Current Version | Previous Version | Text Only | Print | Product List | Glossary Off
Versions: 1 2 3 4 5 6 7 8 9 10 11 12 13 14 15 16 17 18 19 20 21 22 23 24 25 26 27 28 29 30 31 32 33 34 35 36 37 38 39 40 41 42 43 44 45 46 47 48 49 50

502
ASUS43 KGLD 210059
RWRGLD

GOODLAND FORECAST AREA HOURLY WEATHER ROUNDUP
NATIONAL WEATHER SERVICE GOODLAND KS
700 PM MDT WED SEP 20 2017

...OFFICIAL OBSERVATIONS...

CITY           SKY/WX    TMP DP  RH WIND       PRES   REMARKS
GOODLAND KS    CLEAR     67  33  28 SE10      29.89S
HILL CITY KS   CLEAR     72  36  26 E7        29.87S HAZE
IMPERIAL NEB   CLEAR     67  30  25 SE9       29.87S
MCCOOK NEB     CLEAR     68  37  32 SE7       29.87S
AKRON CO       CLEAR     69  27  20 SE16      29.87S
BURLINGTON CO  CLEAR     66  33  29 SE9       29.90S
LIMON CO       CLEAR     65  28  24 SE20      29.91S
$$

...UNOFFICIAL OBSERVATIONS...

CITY           SKY/WX    TMP DP  RH WIND       PRES   REMARKS
LENORA KS        N/A     70  32  24 MISG        N/A
NORTON KS      CLEAR     68  34  28 CALM      29.87S
SHARON SPRINGS   N/A     70  37  29 NE6         N/A
TRENTON NEB      N/A     68  32  26 S6          N/A
KIT CARSON CO    N/A     71  34  26 MISG        N/A
YUMA CO        FAIR      64  32  29 SE10      29.87S
$$




USA.gov is the U.S. government's official web portal to all federal, state and local government web resources and services.